Regional Weather Roundup
Issued by NWS

Home | Current Version | Previous Version | Text Only | Print | Product List | Glossary On
Versions: 1 2 3 4 5 6 7 8 9 10 11 12 13 14 15 16 17 18 19 20 21 22 23 24 25 26 27 28 29 30 31 32 33 34 35 36 37 38 39 40 41 42 43 44 45 46 47 48 49 50
000
ASUS44 KLIX 190210
RWRLA
LOUISIANA WEATHER ROUNDUP
NATIONAL WEATHER SERVICE NEW ORLEANS LA
900 PM CDT THU SEP 18 2014

NOTE: "FAIR" INDICATES FEW OR NO CLOUDS BELOW 12,000 FEET WITH NO
      SIGNIFICANT WEATHER AND/OR OBSTRUCTIONS TO VISIBILITY.
      SKY/WX - SKY CONDITION AND SIGNIFICANT WEATHER.
      TMP - AIR TEMPERATURE.    DP   - DEWPOINT TEMPERATURE.
      RH  - RELATIVE HUMIDITY.  PRES - PRESSURE.
      HX  - HEAT INDEX.         WCI  - WIND CHILL INDEX.

*  THESE STATIONS ARE NOT NWS OR FAA STATIONS AND ARE NOT UNDER
   NWS QUALITY CONTROL.

LAZ040-048-061>063-065-066-069-190300-
SOUTHEAST LOUISIANA

CITY           SKY/WX    TMP DP  RH WIND       PRES   REMARKS
N.O. AUDUBON     N/A     82  70  67 MISG        N/A
N.O. INTL ARPT CLOUDY    80  68  66 CALM      29.91R
N.O. LAKEFRONT CLOUDY    79  71  76 S6        29.92R
N.O. DOWNTOWN* FAIR      81  64  57 CALM      29.92R
SLIDELL        CLOUDY    78  70  76 E8        29.93R
BATON ROUGE    LGT RAIN  72  70  93 W3        29.91R
BOOTHVILLE     LGT RAIN  80  75  84 SW5       29.93R
BELLE CHASSE   CLOUDY    75  70  84 CALM      29.91R
BOGALUSA*      FAIR      78  68  72 E8        29.94S
GALLIANO*      NOT AVBL
NEW ROADS*     LGT RAIN  71  69  92 CALM      29.93R
GONZALES*      CLOUDY    73  73 100 CALM      29.92R
HAMMOND*       CLOUDY    77  72  83 CALM      29.94R
HOUMA*         LGT RAIN  74  68  82 CALM      29.92R
PORT FOURCHON* MOCLDY    81  73  78 CALM      29.94R

$$

LAZ041-044-053-054-190300-
SOUTHWEST LOUISIANA

CITY           SKY/WX    TMP DP  RH WIND       PRES   REMARKS
LAKE CHARLES   LGT RAIN  75  74  96 E5        29.89R
LAFAYETTE      RAIN      74  73  97 CALM      29.90R
PATTERSON      CLOUDY    73  70  88 CALM      29.94R
SALT POINT       N/A     76  73  91 CALM      29.90S
NEW IBERIA     LGT RAIN  75  73  93 CALM      29.92R
CHENAULT AIRPK CLOUDY    77  75  94 CALM      29.90R

$$

LAZ027-028-190300-
CENTRAL LOUISIANA

CITY           SKY/WX    TMP DP  RH WIND       PRES   REMARKS
FORT POLK      CLOUDY    74  73  97 CALM      29.91R
ALEXANDRIA INT MOCLDY    77  74  90 CALM      29.90R
ALEXANDRIA     CLOUDY    77  74  90 CALM      29.92R

$$

LAZ001-002-190300-
NORTHWEST LOUISIANA

CITY           SKY/WX    TMP DP  RH WIND       PRES   REMARKS
SHREVEPORT     MOCLDY    77  70  79 SW7       29.91R
BARKSDALE AFB  MOCLDY    79  71  76 SW3       29.91R
DTN SHREVEPORT MOCLDY    79  70  74 W5        29.91R

$$

LAZ014-016-190300-
NORTHEAST LOUISIANA

CITY           SKY/WX    TMP DP  RH WIND       PRES   REMARKS
MONROE         CLOUDY    76  74  93 CALM      29.93R
TALLULAH       CLOUDY    75  65  70 E12       29.94R

$$



USA.gov is the U.S. government's official web portal to all federal, state and local government web resources and services.